Time,TemperatureF,DewpointF,PressureIn,WindDirection,WindDirectionDegrees,WindSpeedMPH,WindSpeedGustMPH,Humidity,HourlyPrecipIn,Conditions,Clouds,dailyrainin,SoftwareType,DateUTC
2013-02-17 00:00:00,54.9,40.4,30.18,NNW,328,10.6,20.7,58,0.00,CLR,OVC,0.00,WeatherDisplay:10.37,2013-02-17 05:00:00,
2013-02-17 00:05:00,54.8,40.3,30.18,NE,49,11.5,18.4,58,0.00,CLR,OVC,0.00,WeatherDisplay:10.37,2013-02-17 05:05:00,
2013-02-17 00:10:00,54.7,40.2,30.18,NW,305,10.8,19.6,58,0.00,CLR,OVC,0.00,WeatherDisplay:10.37,2013-02-17 05:10:00,
2013-02-17 00:15:00,54.6,40.1,30.18,North,360,6.8,12.7,58,0.00,CLR,OVC,0.00,WeatherDisplay:10.37,2013-02-17 05:15:00,
2013-02-17 00:20:00,54.5,40.0,30.18,NW,309,6.6,18.4,58,0.00,CLR,OVC,0.00,WeatherDisplay:10.37,2013-02-17 05:20:00,
2013-02-17 00:25:00,54.4,39.9,30.19,North,360,10.4,17.3,58,0.00,CLR,OVC,0.00,WeatherDisplay:10.37,2013-02-17 05:25:00,
2013-02-17 00:30:00,54.2,39.7,30.19,North,0,12.6,23.0,58,0.00,CLR,OVC,0.00,WeatherDisplay:10.37,2013-02-17 05:30:00,
2013-02-17 00:35:00,54.0,39.1,30.19,North,10,7.6,19.6,57,0.00,CLR,OVC,0.00,WeatherDisplay:10.37,2013-02-17 05:35:00,
2013-02-17 00:40:00,53.9,38.6,30.19,NNW,333,9.5,19.6,56,0.00,CLR,OVC,0.00,WeatherDisplay:10.37,2013-02-17 05:40:00,
2013-02-17 00:45:00,53.8,38.5,30.20,North,356,11.7,22.3,56,0.00,CLR,OVC,0.00,WeatherDisplay:10.37,2013-02-17 05:45:00,
2013-02-17 00:50:00,53.7,38.8,30.20,North,352,8.3,12.7,57,0.00,CLR,OVC,0.00,WeatherDisplay:10.37,2013-02-17 05:50:00,
2013-02-17 00:55:00,53.5,38.2,30.20,North,0,10.4,21.9,56,0.00,CLR,OVC,0.00,WeatherDisplay:10.37,2013-02-17 05:55:00,
2013-02-17 01:00:00,53.5,37.7,30.20,WNW,298,12.2,17.3,55,0.00,CLR,OVC,0.00,WeatherDisplay:10.37,2013-02-17 06:00:00,
2013-02-17 01:05:00,53.3,37.1,30.20,NW,315,8.4,15.0,54,0.00,CLR,OVC,0.00,WeatherDisplay:10.37,2013-02-17 06:05:00,
2013-02-17 01:10:00,53.3,37.5,30.21,North,0,7.9,16.1,55,0.00,CLR,OVC,0.00,WeatherDisplay:10.37,2013-02-17 06:10:00,
2013-02-17 01:15:00,53.2,36.5,30.21,WNW,302,9.6,15.0,53,0.00,CLR,OVC,0.00,WeatherDisplay:10.37,2013-02-17 06:15:00,
2013-02-17 01:20:00,53.1,36.9,30.21,NNW,333,8.7,18.4,54,0.00,CLR,OVC,0.00,WeatherDisplay:10.37,2013-02-17 06:20:00,
2013-02-17 01:25:00,53.0,36.3,30.21,North,360,9.8,15.0,53,0.00,CLR,OVC,0.00,WeatherDisplay:10.37,2013-02-17 06:25:00,
2013-02-17 01:30:00,52.9,36.7,30.21,North,11,11.7,15.2,54,0.00,CLR,OVC,0.00,WeatherDisplay:10.37,2013-02-17 06:30:00,
2013-02-17 01:35:00,52.8,35.6,30.21,NNE,16,10.8,19.6,52,0.00,CLR,OVC,0.00,WeatherDisplay:10.37,2013-02-17 06:35:00,
2013-02-17 01:40:00,52.7,35.6,30.21,NW,306,9.6,17.3,52,0.00,CLR,OVC,0.00,WeatherDisplay:10.37,2013-02-17 06:40:00,
2013-02-17 01:45:00,52.6,35.9,30.21,NNW,329,11.4,21.9,53,0.00,CLR,OVC,0.00,WeatherDisplay:10.37,2013-02-17 06:45:00,
2013-02-17 01:50:00,52.7,36.0,30.22,NNW,330,8.3,15.0,53,0.00,CLR,OVC,0.00,WeatherDisplay:10.37,2013-02-17 06:50:00,
2013-02-17 01:55:00,52.5,35.8,30.22,NNW,347,7.3,15.0,53,0.00,CLR,OVC,0.00,WeatherDisplay:10.37,2013-02-17 06:55:00,
2013-02-17 02:00:00,52.3,35.2,30.21,NW,312,8.3,17.4,52,0.00,CLR,OVC,0.00,WeatherDisplay:10.37,2013-02-17 07:00:00,
2013-02-17 02:05:00,52.3,35.2,30.21,NNW,330,7.5,9.2,52,0.00,CLR,OVC,0.00,WeatherDisplay:10.37,2013-02-17 07:05:00,
2013-02-17 02:10:00,52.0,34.9,30.21,NNW,339,6.7,12.7,52,0.00,CLR,OVC,0.00,WeatherDisplay:10.37,2013-02-17 07:10:00,
2013-02-17 02:15:00,52.0,34.9,30.21,NNE,28,7.6,11.5,52,0.00,CLR,OVC,0.00,WeatherDisplay:10.37,2013-02-17 07:15:00,
2013-02-17 02:20:00,51.8,34.7,30.21,North,360,7.2,13.8,52,0.00,CLR,OVC,0.00,WeatherDisplay:10.37,2013-02-17 07:20:00,
2013-02-17 02:25:00,51.7,34.6,30.22,NNW,346,7.2,9.2,52,0.00,CLR,OVC,0.00,WeatherDisplay:10.37,2013-02-17 07:25:00,
2013-02-17 02:30:00,51.6,34.0,30.22,NW,304,9.2,11.5,51,0.00,CLR,OVC,0.00,WeatherDisplay:10.37,2013-02-17 07:30:00,
2013-02-17 02:35:00,51.5,33.5,30.22,NW,320,8.1,13.8,50,0.00,CLR,OVC,0.00,WeatherDisplay:10.37,2013-02-17 07:35:00,
2013-02-17 02:40:00,51.4,33.4,30.22,North,3,4.9,11.5,50,0.00,CLR,OVC,0.00,WeatherDisplay:10.37,2013-02-17 07:40:00,
2013-02-17 02:45:00,51.3,33.3,30.22,NW,316,8.7,12.7,50,0.00,CLR,OVC,0.00,WeatherDisplay:10.37,2013-02-17 07:45:00,
2013-02-17 02:50:00,51.4,33.9,30.22,NNW,336,10.6,15.0,51,0.00,CLR,OVC,0.00,WeatherDisplay:10.37,2013-02-17 07:50:00,
2013-02-17 02:55:00,51.2,33.2,30.22,North,360,8.2,18.4,50,0.00,CLR,OVC,0.00,WeatherDisplay:10.37,2013-02-17 07:55:00,
2013-02-17 03:00:00,51.1,33.6,30.22,NNE,14,6.0,12.7,51,0.00,CLR,OVC,0.00,WeatherDisplay:10.37,2013-02-17 08:00:00,
2013-02-17 03:05:00,50.9,33.4,30.22,North,360,7.0,17.3,51,0.00,CLR,OVC,0.00,WeatherDisplay:10.37,2013-02-17 08:05:00,
2013-02-17 03:10:00,50.9,34.4,30.22,NW,313,8.7,15.9,53,0.00,CLR,OVC,0.00,WeatherDisplay:10.37,2013-02-17 08:10:00,
2013-02-17 03:15:00,50.9,33.9,30.22,WNW,292,8.2,16.1,52,0.00,CLR,OVC,0.00,WeatherDisplay:10.37,2013-02-17 08:15:00,
2013-02-17 03:20:00,50.8,34.3,30.22,NNE,14,7.1,13.4,53,0.00,CLR,OVC,0.00,WeatherDisplay:10.37,2013-02-17 08:20:00,
2013-02-17 03:25:00,50.8,33.8,30.22,NE,34,7.0,17.3,52,0.00,CLR,OVC,0.00,WeatherDisplay:10.37,2013-02-17 08:25:00,
2013-02-17 03:31:00,50.7,34.6,30.22,NNE,17,6.1,11.5,54,0.00,CLR,OVC,0.00,WeatherDisplay:10.37,2013-02-17 08:31:00,
2013-02-17 03:36:00,50.7,35.1,30.22,NNE,17,7.0,12.7,55,0.00,CLR,OVC,0.00,WeatherDisplay:10.37,2013-02-17 08:36:00,
2013-02-17 03:41:00,50.4,34.4,30.22,North,4,9.2,15.0,54,0.00,CLR,OVC,0.00,WeatherDisplay:10.37,2013-02-17 08:41:00,
2013-02-17 03:46:00,50.3,35.2,30.22,NNW,330,11.7,23.0,56,0.00,CLR,OVC,0.00,WeatherDisplay:10.37,2013-02-17 08:46:00,
2013-02-17 03:51:00,50.3,35.2,30.23,North,3,5.7,9.2,56,0.00,CLR,OVC,0.00,WeatherDisplay:10.37,2013-02-17 08:51:00,
2013-02-17 03:56:00,50.0,35.4,30.22,ENE,58,5.3,9.2,57,0.00,CLR,OVC,0.00,WeatherDisplay:10.37,2013-02-17 08:56:00,
2013-02-17 04:01:00,50.1,35.4,30.22,North,3,7.1,12.7,57,0.00,CLR,OVC,0.00,WeatherDisplay:10.37,2013-02-17 09:01:00,
2013-02-17 04:06:00,50.0,35.8,30.23,NNE,21,7.7,12.7,58,0.00,CLR,OVC,0.00,WeatherDisplay:10.37,2013-02-17 09:06:00,
2013-02-17 04:11:00,49.9,35.7,30.23,NE,51,7.1,11.5,58,0.00,CLR,OVC,0.00,WeatherDisplay:10.37,2013-02-17 09:11:00,
2013-02-17 04:16:00,49.9,35.7,30.23,NNE,31,8.9,16.1,58,0.00,CLR,OVC,0.00,WeatherDisplay:10.37,2013-02-17 09:16:00,
2013-02-17 04:21:00,49.7,35.5,30.23,North,360,6.7,11.5,58,0.00,CLR,OVC,0.00,WeatherDisplay:10.37,2013-02-17 09:21:00,
2013-02-17 04:26:00,49.6,35.4,30.23,North,7,7.2,11.5,58,0.00,CLR,OVC,0.00,WeatherDisplay:10.37,2013-02-17 09:26:00,
2013-02-17 04:31:00,49.6,35.4,30.23,North,4,6.4,16.1,58,0.00,CLR,OVC,0.00,WeatherDisplay:10.37,2013-02-17 09:31:00,
2013-02-17 04:36:00,49.4,35.2,30.23,NE,35,8.6,12.7,58,0.00,CLR,OVC,0.00,WeatherDisplay:10.37,2013-02-17 09:36:00,
2013-02-17 04:41:00,49.1,33.2,30.24,ENE,73,5.0,6.9,54,0.00,CLR,OVC,0.00,WeatherDisplay:10.37,2013-02-17 09:41:00,
2013-02-17 04:46:00,48.9,32.5,30.24,NE,41,5.6,8.3,53,0.00,CLR,OVC,0.00,WeatherDisplay:10.37,2013-02-17 09:46:00,
2013-02-17 04:51:00,48.7,31.4,30.24,NE,49,7.5,9.2,51,0.00,CLR,OVC,0.00,WeatherDisplay:10.37,2013-02-17 09:51:00,
2013-02-17 04:56:00,48.3,31.0,30.24,NE,45,4.7,6.9,51,0.00,CLR,OVC,0.00,WeatherDisplay:10.37,2013-02-17 09:56:00,
2013-02-17 05:01:00,48.3,30.5,30.25,NE,54,7.6,10.4,50,0.00,CLR,OVC,0.00,WeatherDisplay:10.37,2013-02-17 10:01:00,
2013-02-17 05:06:00,48.0,30.2,30.25,ENE,64,5.4,8.8,50,0.00,CLR,OVC,0.00,WeatherDisplay:10.37,2013-02-17 10:06:00,
2013-02-17 05:11:00,47.8,29.5,30.25,NE,44,5.8,9.2,49,0.00,CLR,OVC,0.00,WeatherDisplay:10.37,2013-02-17 10:11:00,
2013-02-17 05:16:00,47.7,29.5,30.25,East,80,5.9,8.1,49,0.00,CLR,OVC,0.00,WeatherDisplay:10.37,2013-02-17 10:16:00,
2013-02-17 05:21:00,47.5,29.8,30.26,NNE,21,4.8,9.2,50,0.00,CLR,OVC,0.00,WeatherDisplay:10.37,2013-02-17 10:21:00,
2013-02-17 05:26:00,47.4,29.2,30.26,East,86,6.3,8.1,49,0.00,CLR,OVC,0.00,WeatherDisplay:10.37,2013-02-17 10:26:00,
2013-02-17 05:31:00,47.3,28.6,30.26,NE,40,7.4,11.5,48,0.00,CLR,OVC,0.00,WeatherDisplay:10.37,2013-02-17 10:31:00,
2013-02-17 05:36:00,47.3,29.1,30.26,NE,51,7.3,10.4,49,0.00,CLR,OVC,0.00,WeatherDisplay:10.37,2013-02-17 10:36:00,
2013-02-17 05:41:00,47.3,28.6,30.26,NNE,27,6.9,10.4,48,0.00,CLR,OVC,0.00,WeatherDisplay:10.37,2013-02-17 10:41:00,
2013-02-17 05:46:00,47.0,28.3,30.27,NE,37,4.4,6.9,48,0.00,CLR,OVC,0.00,WeatherDisplay:10.37,2013-02-17 10:46:00,
2013-02-17 05:51:00,46.9,28.7,30.27,ENE,71,4.3,6.7,49,0.00,CLR,OVC,0.00,WeatherDisplay:10.37,2013-02-17 10:51:00,
2013-02-17 05:56:00,46.8,28.6,30.27,NE,40,4.1,8.1,49,0.00,CLR,OVC,0.00,WeatherDisplay:10.37,2013-02-17 10:56:00,
2013-02-17 06:01:00,46.4,27.2,30.27,NE,55,5.0,10.4,47,0.00,CLR,OVC,0.00,WeatherDisplay:10.37,2013-02-17 11:01:00,
2013-02-17 06:06:00,46.3,27.2,30.28,NE,48,6.2,10.4,47,0.00,CLR,OVC,0.00,WeatherDisplay:10.37,2013-02-17 11:06:00,
2013-02-17 06:11:00,46.0,26.9,30.28,NE,38,6.1,11.5,47,0.00,CLR,OVC,0.00,WeatherDisplay:10.37,2013-02-17 11:11:00,
2013-02-17 06:16:00,45.9,26.8,30.28,ENE,75,5.1,9.2,47,0.00,CLR,OVC,0.00,WeatherDisplay:10.37,2013-02-17 11:16:00,
2013-02-17 06:21:00,45.8,26.7,30.29,ENE,64,6.7,9.2,47,0.00,CLR,OVC,0.00,WeatherDisplay:10.37,2013-02-17 11:21:00,
2013-02-17 06:26:00,45.6,26.0,30.28,ENE,69,5.8,9.2,46,0.00,CLR,OVC,0.00,WeatherDisplay:10.37,2013-02-17 11:26:00,
2013-02-17 06:31:00,45.6,26.5,30.29,NE,56,5.9,7.7,47,0.00,CLR,OVC,0.00,WeatherDisplay:10.37,2013-02-17 11:31:00,
2013-02-17 06:36:00,45.5,26.4,30.29,NE,44,6.5,11.5,47,0.00,CLR,OVC,0.00,WeatherDisplay:10.37,2013-02-17 11:36:00,
2013-02-17 06:41:00,45.4,26.8,30.29,NE,56,7.2,9.2,48,0.00,CLR,OVC,0.00,WeatherDisplay:10.37,2013-02-17 11:41:00,
2013-02-17 06:46:00,45.3,26.2,30.29,ENE,64,8.1,13.8,47,0.00,CLR,OVC,0.00,WeatherDisplay:10.37,2013-02-17 11:46:00,
2013-02-17 06:51:00,45.2,26.1,30.29,NNE,27,5.5,8.1,47,0.00,CLR,OVC,0.00,WeatherDisplay:10.37,2013-02-17 11:51:00,
2013-02-17 06:56:00,45.1,26.6,30.30,NE,56,4.7,8.1,48,0.00,CLR,OVC,0.00,WeatherDisplay:10.37,2013-02-17 11:56:00,
2013-02-17 07:01:00,45.1,26.6,30.30,NE,52,5.3,8.1,48,0.00,CLR,OVC,0.00,WeatherDisplay:10.37,2013-02-17 12:01:00,
2013-02-17 07:06:00,45.0,26.5,30.30,NE,47,6.7,10.4,48,0.00,CLR,OVC,0.00,WeatherDisplay:10.37,2013-02-17 12:06:00,
2013-02-17 07:11:00,44.9,26.4,30.30,ENE,59,5.6,9.2,48,0.00,CLR,OVC,0.00,WeatherDisplay:10.37,2013-02-17 12:11:00,
2013-02-17 07:16:00,44.7,26.7,30.30,NE,54,5.4,10.4,49,0.00,CLR,OVC,0.00,WeatherDisplay:10.37,2013-02-17 12:16:00,
2013-02-17 07:21:00,44.6,26.6,30.30,NNE,14,5.7,9.2,49,0.00,CLR,OVC,0.00,WeatherDisplay:10.37,2013-02-17 12:21:00,
2013-02-17 07:26:00,44.4,26.4,30.30,ENE,58,8.0,10.4,49,0.00,CLR,OVC,0.00,WeatherDisplay:10.37,2013-02-17 12:26:00,
2013-02-17 07:31:00,44.4,26.4,30.31,NNE,32,5.9,10.4,49,0.00,CLR,OVC,0.00,WeatherDisplay:10.37,2013-02-17 12:31:00,
2013-02-17 07:36:00,44.3,26.3,30.31,ENE,61,6.6,9.2,49,0.00,CLR,OVC,0.00,WeatherDisplay:10.37,2013-02-17 12:36:00,
2013-02-17 07:41:00,44.4,26.4,30.31,North,10,6.9,11.5,49,0.00,CLR,OVC,0.00,WeatherDisplay:10.37,2013-02-17 12:41:00,
2013-02-17 07:46:00,44.4,26.4,30.32,East,93,4.7,8.1,49,0.00,CLR,OVC,0.00,WeatherDisplay:10.37,2013-02-17 12:46:00,
2013-02-17 07:51:00,44.4,25.9,30.32,NE,48,7.8,12.7,48,0.00,CLR,OVC,0.00,WeatherDisplay:10.37,2013-02-17 12:51:00,
2013-02-17 07:56:00,44.4,25.9,30.32,ENE,71,8.0,12.7,48,0.00,CLR,OVC,0.00,WeatherDisplay:10.37,2013-02-17 12:56:00,
2013-02-17 08:01:00,44.6,26.1,30.32,NE,42,9.3,16.1,48,0.00,CLR,OVC,0.00,WeatherDisplay:10.37,2013-02-17 13:01:00,
2013-02-17 08:06:00,44.6,25.6,30.32,NE,49,6.1,9.2,47,0.00,CLR,OVC,0.00,WeatherDisplay:10.37,2013-02-17 13:06:00,
2013-02-17 08:11:00,44.9,25.9,30.33,NNE,32,4.9,9.8,47,0.00,CLR,OVC,0.00,WeatherDisplay:10.37,2013-02-17 13:11:00,
2013-02-17 08:16:00,44.9,25.9,30.33,NNE,20,9.7,16.1,47,0.00,CLR,OVC,0.00,WeatherDisplay:10.37,2013-02-17 13:16:00,
2013-02-17 08:21:00,45.3,25.7,30.33,NE,47,5.5,9.2,46,0.00,CLR,OVC,0.00,WeatherDisplay:10.37,2013-02-17 13:21:00,
2013-02-17 08:26:00,45.5,26.4,30.34,West,278,6.9,9.2,47,0.00,CLR,OVC,0.00,WeatherDisplay:10.37,2013-02-17 13:26:00,
2013-02-17 08:31:00,45.8,26.2,30.34,ENE,71,7.3,12.7,46,0.00,CLR,OVC,0.00,WeatherDisplay:10.37,2013-02-17 13:31:00,
2013-02-17 08:36:00,46.0,26.4,30.34,NNE,20,10.3,12.7,46,0.00,CLR,OVC,0.00,WeatherDisplay:10.37,2013-02-17 13:36:00,
2013-02-17 08:41:00,46.3,26.6,30.34,East,97,11.2,13.8,46,0.00,CLR,OVC,0.00,WeatherDisplay:10.37,2013-02-17 13:41:00,
2013-02-17 08:46:00,46.6,26.9,30.34,NE,55,3.8,11.5,46,0.00,CLR,OVC,0.00,WeatherDisplay:10.37,2013-02-17 13:46:00,
2013-02-17 08:51:00,46.8,26.6,30.34,ENE,69,9.3,13.8,45,0.00,CLR,OVC,0.00,WeatherDisplay:10.37,2013-02-17 13:51:00,
2013-02-17 08:56:00,47.1,27.4,30.35,ENE,71,8.8,12.7,46,0.00,CLR,OVC,0.00,WeatherDisplay:10.37,2013-02-17 13:56:00,
2013-02-17 09:01:00,47.3,27.5,30.35,ENE,58,8.0,11.5,46,0.00,CLR,OVC,0.00,WeatherDisplay:10.37,2013-02-17 14:01:00,
2013-02-17 09:06:00,47.5,27.7,30.35,ESE,103,6.1,13.8,46,0.00,CLR,OVC,0.00,WeatherDisplay:10.37,2013-02-17 14:06:00,
2013-02-17 09:11:00,47.5,27.2,30.36,NE,35,8.5,12.9,45,0.00,CLR,OVC,0.00,WeatherDisplay:10.37,2013-02-17 14:11:00,
2013-02-17 09:16:00,47.6,27.3,30.35,NE,54,7.1,11.5,45,0.00,CLR,OVC,0.00,WeatherDisplay:10.37,2013-02-17 14:16:00,
2013-02-17 09:21:00,47.7,27.9,30.36,ENE,72,9.2,17.3,46,0.00,CLR,OVC,0.00,WeatherDisplay:10.37,2013-02-17 14:21:00,
2013-02-17 09:26:00,48.1,27.7,30.36,NE,40,7.7,10.4,45,0.00,CLR,OVC,0.00,WeatherDisplay:10.37,2013-02-17 14:26:00,
2013-02-17 09:31:00,48.2,27.8,30.36,NE,34,10.5,13.8,45,0.00,CLR,OVC,0.00,WeatherDisplay:10.37,2013-02-17 14:31:00,
2013-02-17 09:36:00,48.4,28.5,30.37,ENE,59,7.9,12.7,46,0.00,CLR,OVC,0.00,WeatherDisplay:10.37,2013-02-17 14:36:00,
2013-02-17 09:41:00,48.9,29.5,30.37,North,360,6.2,9.2,47,0.00,CLR,OVC,0.00,WeatherDisplay:10.37,2013-02-17 14:41:00,
2013-02-17 09:46:00,49.3,29.4,30.37,NNE,30,8.2,11.5,46,0.00,CLR,OVC,0.00,WeatherDisplay:10.37,2013-02-17 14:46:00,
2013-02-17 09:51:00,49.4,29.5,30.37,ENE,59,7.7,13.8,46,0.00,CLR,OVC,0.00,WeatherDisplay:10.37,2013-02-17 14:51:00,
2013-02-17 09:56:00,49.7,30.3,30.37,East,97,4.8,9.2,47,0.00,CLR,OVC,0.00,WeatherDisplay:10.37,2013-02-17 14:56:00,
2013-02-17 10:01:00,50.0,31.1,30.37,ENE,78,7.5,10.4,48,0.00,CLR,OVC,0.00,WeatherDisplay:10.37,2013-02-17 15:01:00,
2013-02-17 10:06:00,50.1,31.7,30.37,NW,312,7.2,11.5,49,0.00,CLR,OVC,0.00,WeatherDisplay:10.37,2013-02-17 15:06:00,
2013-02-17 10:11:00,50.4,30.9,30.37,NE,48,7.9,12.7,47,0.00,CLR,OVC,0.00,WeatherDisplay:10.37,2013-02-17 15:11:00,
2013-02-17 10:16:00,50.4,30.9,30.37,North,356,7.1,10.4,47,0.00,CLR,OVC,0.00,WeatherDisplay:10.37,2013-02-17 15:16:00,
2013-02-17 10:21:00,50.6,31.1,30.37,North,11,8.5,13.8,47,0.00,CLR,OVC,0.00,WeatherDisplay:10.37,2013-02-17 15:21:00,
2013-02-17 10:26:00,50.7,32.2,30.37,North,11,8.6,15.7,49,0.00,CLR,OVC,0.00,WeatherDisplay:10.37,2013-02-17 15:26:00,
2013-02-17 10:31:00,50.8,32.8,30.37,NE,51,8.6,17.3,50,0.00,CLR,OVC,0.00,WeatherDisplay:10.37,2013-02-17 15:31:00,
2013-02-17 10:36:00,51.1,33.1,30.37,WNW,284,10.5,15.0,50,0.00,CLR,OVC,0.00,WeatherDisplay:10.37,2013-02-17 15:36:00,
2013-02-17 10:41:00,51.2,33.2,30.38,NW,325,6.4,9.2,50,0.00,CLR,OVC,0.00,WeatherDisplay:10.37,2013-02-17 15:41:00,
2013-02-17 10:46:00,51.5,34.0,30.38,WNW,294,5.9,10.4,51,0.00,CLR,OVC,0.00,WeatherDisplay:10.37,2013-02-17 15:46:00,
2013-02-17 10:51:00,51.9,34.3,30.38,NNE,25,9.2,16.1,51,0.00,CLR,OVC,0.00,WeatherDisplay:10.37,2013-02-17 15:51:00,
2013-02-17 10:56:00,51.9,33.8,30.38,NNW,336,11.3,17.3,50,0.00,CLR,OVC,0.00,WeatherDisplay:10.37,2013-02-17 15:56:00,
2013-02-17 11:01:00,51.8,34.7,30.38,NNE,23,9.1,13.8,52,0.00,CLR,OVC,0.00,WeatherDisplay:10.37,2013-02-17 16:01:00,
2013-02-17 11:06:00,52.2,34.1,30.38,East,80,6.3,12.7,50,0.00,CLR,OVC,0.00,WeatherDisplay:10.37,2013-02-17 16:06:00,
2013-02-17 11:11:00,52.3,34.2,30.38,North,0,10.0,17.3,50,0.00,CLR,OVC,0.00,WeatherDisplay:10.37,2013-02-17 16:11:00,
2013-02-17 11:16:00,52.2,34.1,30.39,NNE,17,9.3,16.1,50,0.00,CLR,OVC,0.00,WeatherDisplay:10.37,2013-02-17 16:16:00,
2013-02-17 11:21:00,52.3,34.2,30.39,NNE,20,8.2,15.0,50,0.00,CLR,OVC,0.00,WeatherDisplay:10.37,2013-02-17 16:21:00,
2013-02-17 11:26:00,52.5,34.4,30.39,NE,37,9.1,13.8,50,0.00,CLR,OVC,0.00,WeatherDisplay:10.37,2013-02-17 16:26:00,
2013-02-17 11:31:00,52.6,34.5,30.39,NNE,17,7.2,17.3,50,0.00,CLR,OVC,0.00,WeatherDisplay:10.37,2013-02-17 16:31:00,
2013-02-17 11:36:00,52.8,34.7,30.39,WNW,298,8.0,12.7,50,0.00,CLR,OVC,0.00,WeatherDisplay:10.37,2013-02-17 16:36:00,
2013-02-17 11:41:00,53.2,35.0,30.39,North,357,10.4,13.8,50,0.00,CLR,OVC,0.00,WeatherDisplay:10.37,2013-02-17 16:41:00,
2013-02-17 11:46:00,53.4,34.7,30.39,NE,54,4.4,9.2,49,0.00,CLR,OVC,0.00,WeatherDisplay:10.37,2013-02-17 16:46:00,
2013-02-17 11:51:00,53.7,35.5,30.39,NNE,20,7.7,12.7,50,0.00,CLR,OVC,0.00,WeatherDisplay:10.37,2013-02-17 16:51:00,
2013-02-17 11:56:00,53.7,34.5,30.39,NE,35,11.7,17.3,48,0.00,CLR,OVC,0.00,WeatherDisplay:10.37,2013-02-17 16:56:00,
2013-02-17 12:01:00,53.6,35.4,30.38,NE,35,7.5,12.7,50,0.00,CLR,OVC,0.00,WeatherDisplay:10.37,2013-02-17 17:01:00,
2013-02-17 12:06:00,54.1,35.9,30.38,North,10,6.3,11.5,50,0.00,CLR,OVC,0.00,WeatherDisplay:10.37,2013-02-17 17:06:00,
2013-02-17 12:11:00,54.3,36.5,30.39,North,4,7.5,11.5,51,0.00,CLR,OVC,0.00,WeatherDisplay:10.37,2013-02-17 17:11:00,
2013-02-17 12:16:00,54.8,36.0,30.39,North,6,3.8,16.1,49,0.00,CLR,OVC,0.00,WeatherDisplay:10.37,2013-02-17 17:16:00,
2013-02-17 12:21:00,55.2,36.4,30.39,North,11,7.1,10.4,49,0.00,CLR,OVC,0.00,WeatherDisplay:10.37,2013-02-17 17:21:00,
2013-02-17 12:26:00,55.4,36.0,30.39,North,6,7.4,11.5,48,0.00,CLR,OVC,0.00,WeatherDisplay:10.37,2013-02-17 17:26:00,
2013-02-17 12:31:00,55.3,35.9,30.39,North,360,6.4,10.4,48,0.00,CLR,OVC,0.00,WeatherDisplay:10.37,2013-02-17 17:31:00,
2013-02-17 12:36:00,55.3,34.9,30.38,NW,311,8.4,15.0,46,0.00,CLR,OVC,0.00,WeatherDisplay:10.37,2013-02-17 17:36:00,
2013-02-17 12:41:00,55.1,35.2,30.38,NNE,23,8.2,16.1,47,0.00,CLR,OVC,0.00,WeatherDisplay:10.37,2013-02-17 17:41:00,
2013-02-17 12:46:00,55.9,36.5,30.38,WNW,296,6.5,13.8,48,0.00,CLR,OVC,0.00,WeatherDisplay:10.37,2013-02-17 17:46:00,
2013-02-17 12:51:00,56.2,36.8,30.38,NNE,31,6.4,12.7,48,0.00,CLR,OVC,0.00,WeatherDisplay:10.37,2013-02-17 17:51:00,
2013-02-17 12:56:00,56.5,35.4,30.38,North,350,7.0,13.8,45,0.00,CLR,OVC,0.00,WeatherDisplay:10.37,2013-02-17 17:56:00,
2013-02-17 13:01:00,57.0,37.0,30.38,NNE,16,10.0,16.1,47,0.00,CLR,OVC,0.00,WeatherDisplay:10.37,2013-02-17 18:01:00,
2013-02-17 13:06:00,57.1,35.4,30.38,North,354,9.6,16.1,44,0.00,CLR,OVC,0.00,WeatherDisplay:10.37,2013-02-17 18:06:00,
2013-02-17 13:11:00,57.4,35.6,30.38,ENE,58,5.5,13.8,44,0.00,CLR,OVC,0.00,WeatherDisplay:10.37,2013-02-17 18:11:00,
2013-02-17 13:16:00,57.0,34.1,30.37,North,360,9.0,21.9,42,0.00,CLR,OVC,0.00,WeatherDisplay:10.37,2013-02-17 18:16:00,
2013-02-17 13:21:00,57.0,35.3,30.37,NW,306,10.0,13.8,44,0.00,CLR,OVC,0.00,WeatherDisplay:10.37,2013-02-17 18:21:00,
2013-02-17 13:26:00,57.7,34.7,30.37,NNE,25,9.7,15.0,42,0.00,CLR,OVC,0.00,WeatherDisplay:10.37,2013-02-17 18:26:00,
2013-02-17 13:31:00,58.2,35.8,30.36,NNE,32,8.2,15.0,43,0.00,CLR,OVC,0.00,WeatherDisplay:10.37,2013-02-17 18:31:00,
2013-02-17 13:36:00,58.7,34.4,30.36,North,360,10.0,13.8,40,0.00,CLR,OVC,0.00,WeatherDisplay:10.37,2013-02-17 18:36:00,
2013-02-17 13:41:00,58.9,36.4,30.36,North,4,5.7,9.2,43,0.00,CLR,OVC,0.00,WeatherDisplay:10.37,2013-02-17 18:41:00,
2013-02-17 13:46:00,59.1,36.6,30.36,NE,35,8.8,12.7,43,0.00,CLR,OVC,0.00,WeatherDisplay:10.37,2013-02-17 18:46:00,
2013-02-17 13:51:00,59.7,36.6,30.36,NNE,18,7.8,11.8,42,0.00,CLR,OVC,0.00,WeatherDisplay:10.37,2013-02-17 18:51:00,
2013-02-17 13:56:00,59.4,33.8,30.35,NNW,333,3.6,6.9,38,0.00,CLR,OVC,0.00,WeatherDisplay:10.37,2013-02-17 18:56:00,
2013-02-17 14:01:00,58.8,34.5,30.35,NW,319,7.8,16.1,40,0.00,CLR,OVC,0.00,WeatherDisplay:10.37,2013-02-17 19:01:00,
2013-02-17 14:06:00,58.7,35.0,30.35,NNW,346,9.2,11.5,41,0.00,CLR,OVC,0.00,WeatherDisplay:10.37,2013-02-17 19:06:00,
2013-02-17 14:11:00,58.4,33.5,30.35,North,360,4.6,18.4,39,0.00,CLR,OVC,0.00,WeatherDisplay:10.37,2013-02-17 19:11:00,
2013-02-17 14:16:00,58.8,33.9,30.35,NNW,336,9.5,13.8,39,0.00,CLR,OVC,0.00,WeatherDisplay:10.37,2013-02-17 19:16:00,
2013-02-17 14:21:00,59.3,35.0,30.35,North,6,7.2,16.1,40,0.00,CLR,OVC,0.00,WeatherDisplay:10.37,2013-02-17 19:21:00,
2013-02-17 14:26:00,59.6,33.9,30.35,WNW,289,7.8,9.2,38,0.00,CLR,OVC,0.00,WeatherDisplay:10.37,2013-02-17 19:26:00,
2013-02-17 14:31:00,59.3,33.7,30.35,North,360,7.5,9.7,38,0.00,CLR,OVC,0.00,WeatherDisplay:10.37,2013-02-17 19:31:00,
2013-02-17 14:36:00,60.1,34.4,30.35,NNW,329,5.0,6.9,38,0.00,CLR,OVC,0.00,WeatherDisplay:10.37,2013-02-17 19:36:00,
2013-02-17 14:41:00,59.7,32.7,30.34,NW,322,9.2,10.4,36,0.00,CLR,OVC,0.00,WeatherDisplay:10.37,2013-02-17 19:41:00,
2013-02-17 14:46:00,59.9,33.5,30.34,NW,316,8.2,12.7,37,0.00,CLR,OVC,0.00,WeatherDisplay:10.37,2013-02-17 19:46:00,
2013-02-17 14:51:00,59.9,34.9,30.34,NNE,28,7.2,12.7,39,0.00,CLR,OVC,0.00,WeatherDisplay:10.37,2013-02-17 19:51:00,
2013-02-17 14:56:00,60.4,34.0,30.34,NNE,13,7.0,9.2,37,0.00,CLR,OVC,0.00,WeatherDisplay:10.37,2013-02-17 19:56:00,
2013-02-17 15:01:00,59.8,34.8,30.34,NW,304,8.8,15.0,39,0.00,CLR,OVC,0.00,WeatherDisplay:10.37,2013-02-17 20:01:00,
2013-02-17 15:06:00,59.5,35.8,30.34,NNW,335,6.3,15.4,41,0.00,CLR,OVC,0.00,WeatherDisplay:10.37,2013-02-17 20:06:00,
2013-02-17 15:11:00,59.8,34.8,30.34,NNE,16,5.0,9.2,39,0.00,CLR,OVC,0.00,WeatherDisplay:10.37,2013-02-17 20:11:00,
2013-02-17 15:16:00,59.3,33.7,30.34,NW,306,7.4,11.5,38,0.00,CLR,OVC,0.00,WeatherDisplay:10.37,2013-02-17 20:16:00,
2013-02-17 15:21:00,59.0,34.7,30.34,NNE,32,5.2,12.7,40,0.00,CLR,OVC,0.00,WeatherDisplay:10.37,2013-02-17 20:21:00,
2013-02-17 15:26:00,59.7,34.7,30.34,NNW,340,7.3,11.5,39,0.00,CLR,OVC,0.00,WeatherDisplay:10.37,2013-02-17 20:26:00,
2013-02-17 15:31:00,59.7,34.0,30.34,North,8,9.5,13.8,38,0.00,CLR,OVC,0.00,WeatherDisplay:10.37,2013-02-17 20:31:00,
2013-02-17 15:36:00,60.3,35.2,30.34,North,350,8.6,11.5,39,0.00,CLR,OVC,0.00,WeatherDisplay:10.37,2013-02-17 20:36:00,
2013-02-17 15:41:00,60.9,34.4,30.34,North,7,6.9,13.8,37,0.00,CLR,OVC,0.00,WeatherDisplay:10.37,2013-02-17 20:41:00,
2013-02-17 15:46:00,61.1,33.9,30.34,WNW,302,7.3,8.1,36,0.00,CLR,OVC,0.00,WeatherDisplay:10.37,2013-02-17 20:46:00,
2013-02-17 15:51:00,60.1,35.7,30.34,NNW,333,4.0,9.2,40,0.00,CLR,OVC,0.00,WeatherDisplay:10.37,2013-02-17 20:51:00,
2013-02-17 15:56:00,60.0,33.6,30.34,NNE,31,9.2,12.7,37,0.00,CLR,OVC,0.00,WeatherDisplay:10.37,2013-02-17 20:56:00,
2013-02-17 16:01:00,59.6,33.3,30.34,NNW,340,7.8,12.7,37,0.00,CLR,OVC,0.00,WeatherDisplay:10.37,2013-02-17 21:01:00,
2013-02-17 16:06:00,59.9,32.9,30.33,NW,319,2.0,8.1,36,0.00,CLR,OVC,0.00,WeatherDisplay:10.37,2013-02-17 21:06:00,
2013-02-17 16:11:00,60.3,33.2,30.33,WNW,298,5.6,8.1,36,0.00,CLR,OVC,0.00,WeatherDisplay:10.37,2013-02-17 21:11:00,
2013-02-17 16:16:00,60.2,33.1,30.33,NW,322,8.0,12.7,36,0.00,CLR,OVC,0.00,WeatherDisplay:10.37,2013-02-17 21:16:00,
2013-02-17 16:21:00,60.0,34.3,30.33,North,354,4.9,10.4,38,0.00,CLR,OVC,0.00,WeatherDisplay:10.37,2013-02-17 21:21:00,
2013-02-17 16:26:00,59.5,33.9,30.33,NW,319,6.3,10.4,38,0.00,CLR,OVC,0.00,WeatherDisplay:10.37,2013-02-17 21:26:00,
2013-02-17 16:31:00,59.5,33.9,30.33,NW,306,9.8,11.5,38,0.00,CLR,OVC,0.00,WeatherDisplay:10.37,2013-02-17 21:31:00,
2013-02-17 16:36:00,60.0,35.0,30.32,NNW,328,6.0,9.2,39,0.00,CLR,OVC,0.00,WeatherDisplay:10.37,2013-02-17 21:36:00,
2013-02-17 16:41:00,60.6,34.8,30.32,North,360,7.5,11.5,38,0.00,CLR,OVC,0.00,WeatherDisplay:10.37,2013-02-17 21:41:00,
2013-02-17 16:46:00,61.1,33.2,30.32,NNW,344,6.3,9.2,35,0.00,CLR,OVC,0.00,WeatherDisplay:10.37,2013-02-17 21:46:00,
2013-02-17 16:51:00,61.2,34.0,30.32,North,8,7.8,10.4,36,0.00,CLR,OVC,0.00,WeatherDisplay:10.37,2013-02-17 21:51:00,
2013-02-17 16:56:00,61.3,33.4,30.32,NNW,343,5.2,8.1,35,0.00,CLR,OVC,0.00,WeatherDisplay:10.37,2013-02-17 21:56:00,
2013-02-17 17:01:00,61.4,34.2,30.32,NW,311,4.6,6.9,36,0.00,CLR,OVC,0.00,WeatherDisplay:10.37,2013-02-17 22:01:00,
2013-02-17 17:06:00,60.9,34.4,30.32,North,0,5.9,12.7,37,0.00,CLR,OVC,0.00,WeatherDisplay:10.37,2013-02-17 22:06:00,
2013-02-17 17:11:00,60.1,34.4,30.32,NW,318,2.7,12.7,38,0.00,CLR,OVC,0.00,WeatherDisplay:10.37,2013-02-17 22:11:00,
2013-02-17 17:16:00,59.5,33.9,30.32,North,10,3.0,11.5,38,0.00,CLR,OVC,0.00,WeatherDisplay:10.37,2013-02-17 22:16:00,
2013-02-17 17:21:00,59.5,34.5,30.32,NW,323,6.4,8.1,39,0.00,CLR,OVC,0.00,WeatherDisplay:10.37,2013-02-17 22:21:00,
2013-02-17 17:26:00,59.1,33.5,30.33,NW,311,2.6,6.9,38,0.00,CLR,OVC,0.00,WeatherDisplay:10.37,2013-02-17 22:26:00,
2013-02-17 17:31:00,58.5,33.6,30.33,North,349,4.8,9.2,39,0.00,CLR,OVC,0.00,WeatherDisplay:10.37,2013-02-17 22:31:00,
2013-02-17 17:36:00,57.0,32.9,30.33,NW,325,5.1,10.4,40,0.00,CLR,OVC,0.00,WeatherDisplay:10.37,2013-02-17 22:36:00,
2013-02-17 17:41:00,56.1,32.7,30.33,NW,315,6.2,10.4,41,0.00,CLR,OVC,0.00,WeatherDisplay:10.37,2013-02-17 22:41:00,
2013-02-17 17:46:00,55.4,33.8,30.33,NW,312,5.5,12.7,44,0.00,CLR,OVC,0.00,WeatherDisplay:10.37,2013-02-17 22:46:00,
2013-02-17 17:51:00,54.9,34.5,30.33,NW,323,4.1,6.9,46,0.00,CLR,OVC,0.00,WeatherDisplay:10.37,2013-02-17 22:51:00,
2013-02-17 17:56:00,54.5,34.1,30.33,North,4,4.2,8.6,46,0.00,CLR,OVC,0.00,WeatherDisplay:10.37,2013-02-17 22:56:00,
2013-02-17 18:01:00,54.2,33.9,30.33,NNW,344,5.6,6.9,46,0.00,CLR,OVC,0.00,WeatherDisplay:10.37,2013-02-17 23:01:00,
2013-02-17 18:07:00,53.7,33.9,30.33,NW,316,5.2,8.1,47,0.00,CLR,OVC,0.00,WeatherDisplay:10.37,2013-02-17 23:07:00,
2013-02-17 18:12:00,53.5,34.3,30.33,WNW,295,2.6,4.6,48,0.00,CLR,OVC,0.00,WeatherDisplay:10.37,2013-02-17 23:12:00,
2013-02-17 18:17:00,53.3,34.1,30.34,NNW,342,4.2,5.8,48,0.00,CLR,OVC,0.00,WeatherDisplay:10.37,2013-02-17 23:17:00,
2013-02-17 18:22:00,53.0,33.8,30.34,North,360,3.2,6.9,48,0.00,CLR,OVC,0.00,WeatherDisplay:10.37,2013-02-17 23:22:00,
2013-02-17 18:27:00,52.9,34.2,30.34,North,353,4.0,8.1,49,0.00,CLR,OVC,0.00,WeatherDisplay:10.37,2013-02-17 23:27:00,
2013-02-17 18:32:00,52.8,34.2,30.34,North,4,3.3,5.8,49,0.00,CLR,OVC,0.00,WeatherDisplay:10.37,2013-02-17 23:32:00,
2013-02-17 18:37:00,52.7,34.6,30.34,NNW,332,1.8,4.6,50,0.00,CLR,OVC,0.00,WeatherDisplay:10.37,2013-02-17 23:37:00,
2013-02-17 18:42:00,52.7,35.1,30.34,North,354,5.1,8.1,51,0.00,CLR,OVC,0.00,WeatherDisplay:10.37,2013-02-17 23:42:00,
2013-02-17 18:47:00,52.7,35.6,30.33,NW,318,1.0,3.5,52,0.00,CLR,OVC,0.00,WeatherDisplay:10.37,2013-02-17 23:47:00,
2013-02-17 18:52:00,52.6,35.5,30.33,North,360,1.4,2.8,52,0.00,CLR,OVC,0.00,WeatherDisplay:10.37,2013-02-17 23:52:00,
2013-02-17 18:57:00,52.4,36.2,30.33,NNW,344,1.8,3.5,54,0.00,CLR,OVC,0.00,WeatherDisplay:10.37,2013-02-17 23:57:00,
2013-02-17 19:02:00,52.3,36.1,30.33,North,8,0.7,2.3,54,0.00,CLR,OVC,0.00,WeatherDisplay:10.37,2013-02-18 00:02:00,
2013-02-17 19:07:00,52.1,36.4,30.33,North,8,1.6,2.3,55,0.00,CLR,OVC,0.00,WeatherDisplay:10.37,2013-02-18 00:07:00,
2013-02-17 19:12:00,51.9,36.2,30.33,NNE,32,0.4,1.1,55,0.00,CLR,OVC,0.00,WeatherDisplay:10.37,2013-02-18 00:12:00,
2013-02-17 19:17:00,51.7,36.5,30.33,North,360,1.4,2.9,56,0.00,CLR,OVC,0.00,WeatherDisplay:10.37,2013-02-18 00:17:00,
2013-02-17 19:22:00,51.4,36.2,30.33,NNE,25,2.2,3.5,56,0.00,CLR,OVC,0.00,WeatherDisplay:10.37,2013-02-18 00:22:00,
2013-02-17 19:27:00,51.1,36.4,30.34,NNE,24,1.4,3.5,57,0.00,CLR,OVC,0.00,WeatherDisplay:10.37,2013-02-18 00:27:00,
2013-02-17 19:32:00,51.0,36.3,30.34,NNE,31,1.0,2.3,57,0.00,CLR,OVC,0.00,WeatherDisplay:10.37,2013-02-18 00:32:00,
2013-02-17 19:37:00,51.0,36.3,30.34,NNE,28,0.0,0.0,57,0.00,CLR,OVC,0.00,WeatherDisplay:10.37,2013-02-18 00:37:00,
2013-02-17 19:42:00,50.8,36.5,30.34,NNE,28,0.0,0.0,58,0.00,CLR,OVC,0.00,WeatherDisplay:10.37,2013-02-18 00:42:00,
2013-02-17 19:47:00,50.6,36.8,30.34,NE,55,0.0,1.1,59,0.00,CLR,OVC,0.00,WeatherDisplay:10.37,2013-02-18 00:47:00,
2013-02-17 19:52:00,50.5,36.7,30.34,NE,49,0.5,2.4,59,0.00,CLR,OVC,0.00,WeatherDisplay:10.37,2013-02-18 00:52:00,
2013-02-17 19:57:00,50.3,36.5,30.34,NE,44,1.9,2.4,59,0.00,CLR,OVC,0.00,WeatherDisplay:10.37,2013-02-18 00:57:00,
2013-02-17 20:02:00,50.2,36.8,30.35,NE,54,0.0,0.8,60,0.00,CLR,OVC,0.00,WeatherDisplay:10.37,2013-02-18 01:02:00,
2013-02-17 20:07:00,50.0,36.7,30.35,NE,45,0.0,0.0,60,0.00,CLR,OVC,0.00,WeatherDisplay:10.37,2013-02-18 01:07:00,
2013-02-17 20:12:00,49.8,36.5,30.35,NE,34,1.0,2.3,60,0.00,CLR,OVC,0.00,WeatherDisplay:10.37,2013-02-18 01:12:00,
2013-02-17 20:17:00,49.7,36.4,30.35,NE,51,1.2,2.4,60,0.00,CLR,OVC,0.00,WeatherDisplay:10.37,2013-02-18 01:17:00,
2013-02-17 20:22:00,49.5,36.2,30.35,NNE,16,1.7,3.5,60,0.00,CLR,OVC,0.02,WeatherDisplay:10.37,2013-02-18 01:22:00,
2013-02-17 20:27:00,49.4,36.5,30.35,NNE,32,0.0,0.0,61,0.02,RA,OVC,0.02,WeatherDisplay:10.37,2013-02-18 01:27:00,
2013-02-17 20:32:00,49.4,37.3,30.34,NNE,32,0.5,32.2,63,0.03,RA,OVC,0.03,WeatherDisplay:10.37,2013-02-18 01:32:00,
2013-02-17 20:37:00,49.1,37.0,30.35,NNE,23,0.4,1.1,63,0.03,RA,OVC,0.03,WeatherDisplay:10.37,2013-02-18 01:37:00,
2013-02-17 20:42:00,48.8,36.8,30.35,NNE,20,0.0,0.0,63,0.03,,OVC,0.03,WeatherDisplay:10.37,2013-02-18 01:42:00,
2013-02-17 20:47:00,48.7,36.7,30.35,NNE,24,0.7,2.3,63,0.03,CLR,OVC,0.03,WeatherDisplay:10.37,2013-02-18 01:47:00,
2013-02-17 20:52:00,48.6,36.2,30.35,NE,49,1.0,1.1,62,0.03,CLR,OVC,0.03,WeatherDisplay:10.37,2013-02-18 01:52:00,
2013-02-17 20:57:00,48.5,36.5,30.35,ENE,62,2.3,3.5,63,0.03,CLR,OVC,0.03,WeatherDisplay:10.37,2013-02-18 01:57:00,
2013-02-17 21:02:00,48.4,36.0,30.35,NNE,21,0.0,0.0,62,0.03,CLR,OVC,0.03,WeatherDisplay:10.37,2013-02-18 02:02:00,
2013-02-17 21:07:00,48.3,35.9,30.36,NE,49,1.1,2.3,62,0.03,CLR,OVC,0.03,WeatherDisplay:10.37,2013-02-18 02:07:00,
2013-02-17 21:12:00,48.2,36.2,30.35,NE,48,0.5,2.3,63,0.03,CLR,OVC,0.03,WeatherDisplay:10.37,2013-02-18 02:12:00,
2013-02-17 21:17:00,48.0,36.4,30.35,NNE,30,1.2,2.3,64,0.03,CLR,OVC,0.03,WeatherDisplay:10.37,2013-02-18 02:17:00,
2013-02-17 21:22:00,47.9,36.3,30.35,ENE,62,1.4,2.3,64,0.03,CLR,OVC,0.03,WeatherDisplay:10.37,2013-02-18 02:22:00,
2013-02-17 21:27:00,47.7,36.5,30.35,ENE,59,2.2,3.5,65,0.01,CLR,OVC,0.03,WeatherDisplay:10.37,2013-02-18 02:27:00,
2013-02-17 21:32:00,47.6,36.4,30.35,NNE,27,0.0,1.1,65,0.00,CLR,OVC,0.03,WeatherDisplay:10.37,2013-02-18 02:32:00,
2013-02-17 21:37:00,47.6,36.8,30.35,NE,52,0.9,2.3,66,0.00,CLR,OVC,0.03,WeatherDisplay:10.37,2013-02-18 02:37:00,
2013-02-17 21:42:00,47.5,36.7,30.35,ENE,72,1.5,2.3,66,0.00,CLR,OVC,0.03,WeatherDisplay:10.37,2013-02-18 02:42:00,
2013-02-17 21:47:00,47.4,37.0,30.35,NE,42,1.4,2.3,67,0.00,CLR,OVC,0.03,WeatherDisplay:10.37,2013-02-18 02:47:00,
2013-02-17 21:52:00,47.3,36.9,30.36,NE,51,1.7,2.3,67,0.00,CLR,OVC,0.03,WeatherDisplay:10.37,2013-02-18 02:52:00,
2013-02-17 21:57:00,47.3,37.3,30.36,NE,40,1.0,1.1,68,0.00,CLR,OVC,0.03,WeatherDisplay:10.37,2013-02-18 02:57:00,
2013-02-17 22:02:00,47.0,37.0,30.36,NE,54,1.8,3.5,68,0.00,CLR,OVC,0.03,WeatherDisplay:10.37,2013-02-18 03:02:00,
2013-02-17 22:07:00,47.1,37.1,30.36,NE,37,0.3,1.1,68,0.00,CLR,OVC,0.03,WeatherDisplay:10.37,2013-02-18 03:07:00,
2013-02-17 22:12:00,47.0,37.0,30.36,NE,54,0.9,2.3,68,0.00,CLR,OVC,0.03,WeatherDisplay:10.37,2013-02-18 03:12:00,
2013-02-17 22:17:00,46.8,36.8,30.36,NE,38,1.2,3.5,68,0.00,CLR,OVC,0.03,WeatherDisplay:10.37,2013-02-18 03:17:00,
2013-02-17 22:22:00,46.7,37.1,30.36,ENE,58,0.0,0.0,69,0.00,CLR,OVC,0.03,WeatherDisplay:10.37,2013-02-18 03:22:00,
2013-02-17 22:27:00,46.7,37.1,30.37,NE,45,0.5,1.1,69,0.00,CLR,OVC,0.03,WeatherDisplay:10.37,2013-02-18 03:27:00,
2013-02-17 22:32:00,46.7,37.4,30.37,NE,42,0.0,0.0,70,0.00,CLR,OVC,0.03,WeatherDisplay:10.37,2013-02-18 03:32:00,
2013-02-17 22:37:00,46.4,36.8,30.37,NE,42,0.0,0.0,69,0.00,CLR,OVC,0.03,WeatherDisplay:10.37,2013-02-18 03:37:00,
2013-02-17 22:42:00,46.2,37.0,30.37,NE,42,0.0,0.0,70,0.00,CLR,OVC,0.03,WeatherDisplay:10.37,2013-02-18 03:42:00,
2013-02-17 22:47:00,46.1,36.9,30.37,NE,42,0.0,0.0,70,0.00,CLR,OVC,0.03,WeatherDisplay:10.37,2013-02-18 03:47:00,
2013-02-17 22:52:00,46.1,37.2,30.37,NE,42,0.0,0.0,71,0.00,CLR,OVC,0.03,WeatherDisplay:10.37,2013-02-18 03:52:00,
2013-02-17 22:57:00,46.0,37.1,30.37,ENE,61,0.3,1.1,71,0.00,CLR,OVC,0.03,WeatherDisplay:10.37,2013-02-18 03:57:00,
2013-02-17 23:02:00,45.9,37.4,30.37,NE,38,0.8,2.3,72,0.00,CLR,OVC,0.03,WeatherDisplay:10.37,2013-02-18 04:02:00,
2013-02-17 23:07:00,45.8,37.3,30.37,NE,49,0.2,1.1,72,0.00,CLR,OVC,0.03,WeatherDisplay:10.37,2013-02-18 04:07:00,
2013-02-17 23:12:00,45.6,37.1,30.37,NE,49,0.0,0.0,72,0.00,CLR,OVC,0.03,WeatherDisplay:10.37,2013-02-18 04:12:00,
2013-02-17 23:17:00,45.7,37.2,30.37,NE,49,0.0,0.0,72,0.00,CLR,OVC,0.03,WeatherDisplay:10.37,2013-02-18 04:17:00,
2013-02-17 23:22:00,45.6,37.1,30.37,NE,49,0.0,0.0,72,0.00,CLR,OVC,0.03,WeatherDisplay:10.37,2013-02-18 04:22:00,
2013-02-17 23:27:00,45.6,37.1,30.37,NE,49,0.0,0.0,72,0.00,CLR,OVC,0.03,WeatherDisplay:10.37,2013-02-18 04:27:00,
2013-02-17 23:32:00,45.4,36.9,30.37,NE,49,0.0,0.0,72,0.00,CLR,OVC,0.03,WeatherDisplay:10.37,2013-02-18 04:32:00,
2013-02-17 23:37:00,45.3,36.8,30.37,NE,49,0.0,0.0,72,0.00,CLR,OVC,0.03,WeatherDisplay:10.37,2013-02-18 04:37:00,
2013-02-17 23:42:00,45.3,36.8,30.37,NE,49,0.0,0.0,72,0.00,CLR,OVC,0.03,WeatherDisplay:10.37,2013-02-18 04:42:00,
2013-02-17 23:47:00,45.2,36.7,30.37,ENE,76,0.0,0.0,72,0.00,CLR,OVC,0.03,WeatherDisplay:10.37,2013-02-18 04:47:00,
2013-02-17 23:52:00,45.1,36.6,30.38,ENE,76,0.0,0.0,72,0.00,CLR,OVC,0.03,WeatherDisplay:10.37,2013-02-18 04:52:00,
2013-02-17 23:57:00,45.0,36.5,30.38,ENE,78,0.1,0.0,72,0.00,CLR,OVC,0.03,WeatherDisplay:10.37,2013-02-18 04:57:00,